Wind_Speed
39 38 39 39 39 38 38 38 38 38 38 38 38 38 37 37 37 37 37 37 37 37 38 38 38 39 39 39 40 40 40 41 41 41 41 42 42 42 43 43 43 43 43
39 39 39 39 40 39 39 39 40 40 40 40 40 40 39 39 39 38 38 38 38 38 39 39 39 39 40 39 40 41 41 42 42 43 43 43 43 43 44 44 44 44 44
39 39 39 39 39 39 39 39 39 40 40 40 40 40 40 41 40 40 40 40 40 40 40 41 41 41 42 42 41 42 42 43 44 45 45 45 45 45 45 46 46 47 46
38 38 39 39 40 40 40 39 40 40 40 41 41 41 41 41 42 42 42 42 42 42 42 42 43 43 43 44 44 44 44 45 46 46 47 48 48 47 47 47 48 48 47
38 39 40 40 40 41 41 41 41 41 40 41 41 41 42 42 43 44 45 44 43 44 44 44 44 44 44 45 46 46 47 48 48 48 48 49 48 48 48 48 48 48 48
38 39 39 40 41 42 42 42 42 42 42 41 42 42 42 43 43 44 45 46 45 44 45 45 45 45 45 46 46 47 49 49 49 49 49 49 48 48 49 49 49 49 49
38 39 39 40 41 42 43 43 43 42 43 43 43 43 43 44 44 45 45 46 46 46 46 46 47 47 47 47 48 49 49 49 49 49 50 49 49 49 49 50 50 50 49
38 39 40 41 41 42 43 43 43 43 43 43 44 45 45 44 45 45 45 45 46 46 47 48 48 49 50 50 51 50 49 49 49 49 49 49 50 50 50 50 50 50 50
38 38 38 39 41 42 42 42 43 43 44 44 44 45 45 45 45 45 45 45 46 47 47 48 48 48 49 50 50 50 50 49 49 49 49 48 49 49 50 51 51 51 51
37 38 38 39 40 42 42 43 43 43 44 45 46 46 46 46 46 46 46 46 46 47 47 47 48 47 47 47 48 49 49 49 48 48 49 49 50 50 50 51 52 52 51
36 38 39 39 40 41 42 43 44 44 45 46 46 47 46 46 46 45 46 46 46 46 46 46 46 46 46 46 46 47 48 49 49 49 49 50 51 51 52 52 52 52 51
36 37 38 39 40 40 41 42 43 44 44 45 45 46 46 46 45 45 45 45 46 46 46 46 46 46 46 46 47 47 48 49 49 49 50 50 51 51 51 51 51 50 50
34 36 37 38 39 40 41 41 42 43 43 43 43 44 45 45 45 45 46 46 46 47 47 47 46 46 46 46 47 47 48 49 49 50 50 50 50 50 49 50 50 51 50
33 34 36 37 38 39 40 41 41 42 42 43 43 44 44 45 45 46 46 47 47 47 47 47 46 46 47 47 48 48 48 48 49 49 49 49 48 47 47 47 47 48 48
32 33 35 36 37 38 39 40 40 40 41 41 42 43 43 43 44 44 45 46 46 47 46 47 46 46 46 47 47 47 47 47 48 48 48 48 48 47 46 46 46 46 47
32 33 34 35 36 37 37 38 38 39 39 40 41 42 43 43 43 43 43 44 45 45 46 46 46 46 46 47 47 47 47 47 47 47 47 47 46 46 46 45 45 45 45
31 32 33 34 35 36 37 37 37 38 38 40 41 41 41 41 42 43 43 43 43 44 44 45 45 45 46 46 47 47 47 47 47 47 47 46 45 44 44 44 43 44 44
31 32 32 33 34 35 35 36 37 37 38 38 39 39 40 40 41 41 42 42 42 43 43 43 44 44 44 45 46 46 46 46 46 46 45 44 44 44 43 43 43 43 43
32 32 33 33 33 33 34 35 36 37 37 37 38 38 39 40 40 40 41 42 42 43 43 43 43 44 44 44 44 45 45 45 45 45 44 43 43 42 42 42 42 42 42
33 33 33 33 33 33 34 34 35 36 37 38 38 38 38 39 39 40 40 41 41 41 41 42 42 42 42 42 42 42 42 42 42 42 42 41 41 41 41 41 41 40 40
34 34 34 34 33 33 34 34 35 36 37 38 38 38 38 38 38 38 39 39 38 38 39 39 39 40 39 40 39 40 40 40 40 39 39 39 40 40 40 39 39 39 39
34 34 35 34 34 34 34 35 35 35 36 37 37 37 37 38 38 38 38 38 38 37 37 37 38 39 39 38 38 39 38 38 38 38 37 37 37 38 38 38 38 38 38
33 33 33 33 34 34 35 35 35 35 35 36 37 37 37 37 37 37 37 37 37 37 36 36 37 37 38 38 37 37 37 36 36 36 36 36 36 36 37 37 37 38 38
33 33 33 33 33 34 34 34 35 35 35 35 36 36 36 36 36 36 37 36 36 36 36 35 36 36 36 36 36 35 35 34 34 34 34 35 35 36 36 37 37 37 37
31 32 32 33 33 34 34 34 34 34 34 34 35 35 35 35 35 35 35 35 35 35 35 35 35 35 35 35 35 34 34 34 34 34 34 34 34 35 35 36 36 36 36
30 31 31 32 32 33 33 33 33 33 33 34 34 34 34 34 34 34 34 34 34 34 34 34 33 33 33 33 33 33 33 33 33 33 33 33 33 34 34 34 34 35 35
Wind_Direction
246 247 246 246 246 246 247 248 249 251 253 254 256 258 261 263 264 264 265 266 267 268 269 270 271 271 272 272 272 272 271 272 272 272 273 273 274 275 275 275 275 276 277
246 246 247 246 247 247 248 249 250 252 254 255 256 258 261 263 264 265 266 267 267 269 270 271 272 272 271 272 272 272 272 273 273 273 274 274 274 275 275 275 276 276 276
245 246 246 246 247 248 248 249 250 252 254 256 257 258 260 262 264 265 267 268 268 269 270 271 272 272 272 273 273 273 273 274 274 274 274 274 275 274 274 275 275 276 274
246 246 247 247 248 248 248 250 252 254 255 256 257 259 261 262 263 265 266 268 269 270 270 271 272 273 273 273 273 274 274 275 275 275 275 275 275 275 274 275 275 275 273
246 247 248 248 249 248 248 250 253 255 256 258 259 261 263 264 265 266 266 267 269 269 270 271 271 272 273 273 273 274 275 275 276 276 275 275 275 274 275 275 275 274 273
248 248 249 249 249 249 250 252 254 255 257 258 260 262 263 265 266 267 267 267 268 269 270 270 271 271 272 272 273 274 275 275 276 276 275 275 275 275 275 275 274 274 273
250 250 250 249 250 251 252 253 255 256 257 259 261 263 264 266 267 267 267 268 268 268 268 269 270 271 272 272 273 274 274 275 275 274 274 274 275 276 276 276 275 273 273
252 252 252 251 251 252 253 253 254 256 258 260 262 264 265 266 267 267 268 268 269 269 270 271 271 272 272 272 274 275 275 274 274 274 274 274 275 275 276 276 275 273 272
253 253 254 253 252 252 254 255 256 257 259 261 263 265 266 266 267 268 269 269 269 270 271 272 272 273 272 273 274 275 276 275 274 275 274 275 276 277 277 276 275 275 273
255 254 254 254 254 255 256 257 258 260 261 262 263 264 265 266 267 268 268 268 269 270 271 271 271 272 273 273 274 275 276 276 275 275 275 276 277 278 278 277 276 276 275
255 256 256 256 256 257 258 259 260 262 263 264 265 265 265 266 267 268 267 268 269 270 271 271 271 271 272 273 274 276 276 276 275 276 276 278 278 278 278 277 277 277 276
257 257 257 257 257 258 260 261 262 263 264 265 266 266 266 266 266 267 267 268 269 270 270 270 271 272 273 274 275 276 277 277 276 276 277 279 279 279 278 277 277 276 276
259 258 259 259 260 260 261 262 264 265 265 265 266 266 265 266 267 267 268 269 270 270 270 271 271 272 273 274 275 277 278 278 277 278 279 280 280 280 279 278 277 276 276
262 261 261 262 262 262 263 264 264 264 265 266 266 266 266 266 267 268 268 269 270 271 271 271 272 272 272 273 275 277 278 278 278 279 280 281 281 280 280 280 279 278 278
264 264 264 264 264 264 264 264 265 265 266 266 266 266 267 267 268 268 268 269 270 270 271 271 273 273 274 275 276 277 278 279 280 279 279 280 281 280 281 281 281 280 279
266 266 266 265 266 265 265 264 265 266 267 268 268 268 268 268 268 268 269 270 270 271 270 271 272 273 274 276 276 278 279 280 280 280 279 279 280 280 281 281 281 281 281
268 267 267 267 266 265 265 265 266 267 268 268 269 269 269 268 268 269 270 271 271 272 271 271 273 274 275 275 277 279 281 281 281 281 279 279 280 280 281 281 281 282 282
269 270 270 270 268 267 266 266 266 267 269 270 270 269 269 270 270 270 271 272 272 273 273 273 274 275 276 277 278 279 281 282 282 281 280 279 279 280 281 280 281 282 282
271 272 272 271 270 269 267 267 268 268 269 271 271 271 270 270 270 271 272 273 273 274 274 275 275 276 277 279 279 281 283 283 282 281 281 280 279 279 279 279 280 281 281
272 272 272 271 270 269 269 270 270 270 270 271 272 272 272 272 272 272 273 274 274 274 275 275 277 278 279 280 280 281 283 283 282 281 280 279 279 279 279 279 280 280 281
270 270 270 270 269 269 270 271 272 272 272 272 272 272 273 273 273 274 275 275 274 275 276 276 277 278 280 280 280 281 282 283 282 281 281 280 279 278 278 279 279 280 281
270 270 270 269 268 268 270 271 273 274 274 274 273 273 273 274 274 274 275 275 275 276 276 277 277 278 280 280 280 281 282 282 282 281 281 281 280 278 278 279 279 281 282
270 270 270 269 269 269 270 271 273 274 275 275 275 274 274 274 274 274 275 275 276 276 276 277 277 279 279 279 280 281 283 283 283 282 282 281 281 279 278 279 279 280 282
270 270 270 269 269 269 270 271 272 274 275 276 276 275 274 274 274 275 274 275 275 275 276 277 278 279 280 280 280 281 281 282 282 282 282 282 281 280 279 279 279 281 282
271 271 271 270 269 270 271 272 273 274 275 275 276 275 275 274 275 275 275 275 275 275 276 277 278 279 280 280 280 280 280 280 281 281 282 282 281 281 280 279 280 281 281
272 272 272 272 271 271 272 273 273 274 274 275 275 275 274 274 274 275 275 276 276 276 276 276 278 279 280 280 280 280 280 281 281 281 282 282 283 283 282 281 280 281 281
Height
5732 5735 5737 5739 5742 5745 5747 5749 5751 5753 5755 5757 5759 5760 5761 5762 5763 5763 5763 5764 5765 5765 5766 5766 5766 5766 5766 5766 5767 5767 5767 5767 5767 5767 5767 5767 5766 5765 5765 5764 5764 5763 5762
5723 5726 5729 5731 5733 5736 5738 5740 5742 5744 5746 5748 5750 5751 5752 5753 5753 5754 5754 5755 5756 5756 5756 5757 5757 5757 5757 5757 5757 5756 5756 5756 5756 5756 5756 5756 5757 5755 5754 5753 5752 5752 5750
5715 5717 5719 5722 5724 5727 5729 5731 5734 5735 5737 5738 5740 5741 5742 5743 5744 5744 5745 5746 5746 5746 5746 5746 5746 5746 5746 5746 5746 5746 5746 5746 5745 5744 5744 5744 5744 5743 5743 5742 5741 5739 5738
5705 5708 5710 5713 5715 5718 5720 5722 5724 5726 5727 5729 5730 5731 5733 5733 5734 5735 5735 5736 5736 5736 5736 5736 5736 5736 5736 5735 5735 5735 5735 5734 5733 5733 5732 5731 5730 5730 5730 5730 5728 5727 5726
5697 5699 5701 5704 5706 5708 5711 5713 5714 5716 5718 5719 5720 5721 5723 5723 5724 5724 5725 5725 5725 5725 5725 5724 5724 5725 5724 5724 5724 5723 5723 5722 5721 5721 5719 5719 5718 5717 5717 5717 5716 5715 5714
5688 5690 5692 5694 5697 5699 5701 5703 5704 5706 5707 5709 5710 5711 5712 5713 5713 5713 5713 5714 5714 5713 5713 5713 5713 5713 5713 5712 5712 5711 5710 5710 5709 5708 5707 5706 5705 5704 5703 5703 5703 5702 5701
5679 5681 5683 5685 5687 5689 5691 5693 5694 5696 5697 5699 5700 5701 5702 5702 5702 5702 5702 5702 5702 5702 5702 5702 5701 5701 5701 5700 5700 5699 5698 5697 5696 5695 5694 5693 5692 5691 5690 5689 5689 5689 5688
5669 5671 5673 5675 5677 5679 5681 5683 5684 5685 5687 5688 5689 5690 5690 5691 5691 5691 5691 5691 5691 5691 5690 5690 5689 5689 5689 5688 5687 5687 5685 5685 5683 5682 5681 5680 5679 5678 5677 5676 5675 5675 5675
5660 5662 5663 5665 5667 5669 5670 5672 5674 5675 5676 5677 5678 5678 5679 5679 5679 5679 5679 5679 5679 5679 5678 5678 5678 5677 5676 5676 5675 5674 5673 5672 5671 5670 5669 5667 5666 5665 5664 5663 5662 5662 5662
5650 5652 5653 5655 5657 5658 5660 5662 5663 5664 5665 5666 5666 5667 5667 5667 5667 5668 5668 5668 5667 5667 5666 5666 5666 5665 5664 5664 5663 5662 5661 5660 5659 5657 5656 5655 5654 5653 5651 5650 5649 5648 5648
5641 5642 5643 5645 5647 5648 5650 5651 5652 5653 5654 5654 5655 5655 5655 5656 5656 5656 5656 5656 5655 5655 5654 5654 5654 5653 5653 5652 5651 5650 5649 5648 5646 5645 5643 5642 5641 5640 5639 5637 5636 5635 5634
5631 5632 5634 5635 5637 5638 5639 5641 5641 5642 5642 5643 5643 5643 5643 5644 5644 5644 5644 5644 5644 5643 5643 5642 5642 5642 5641 5640 5639 5638 5637 5635 5634 5632 5631 5630 5628 5626 5625 5624 5623 5622 5621
5622 5623 5624 5626 5627 5628 5629 5630 5630 5631 5631 5631 5632 5632 5632 5632 5632 5632 5632 5632 5632 5631 5631 5631 5630 5630 5629 5628 5627 5626 5625 5623 5621 5620 5618 5617 5615 5613 5612 5611 5609 5608 5608
5613 5614 5615 5616 5617 5618 5619 5619 5619 5620 5620 5620 5620 5621 5621 5621 5621 5621 5621 5621 5620 5620 5619 5619 5618 5618 5617 5616 5615 5614 5612 5611 5609 5607 5606 5604 5602 5601 5599 5598 5596 5595 5595
5605 5605 5606 5607 5607 5608 5608 5609 5609 5609 5609 5609 5609 5609 5609 5609 5609 5609 5608 5608 5608 5608 5607 5607 5606 5606 5605 5604 5603 5601 5600 5598 5597 5595 5593 5591 5590 5588 5586 5585 5584 5583 5581
5596 5596 5597 5597 5597 5598 5598 5598 5599 5599 5599 5598 5598 5598 5598 5598 5597 5597 5596 5596 5596 5596 5595 5595 5595 5594 5593 5592 5590 5589 5587 5586 5584 5582 5580 5579 5578 5576 5575 5573 5571 5570 5569
5587 5587 5587 5587 5587 5588 5588 5589 5589 5588 5588 5588 5587 5587 5586 5586 5586 5585 5585 5585 5584 5584 5584 5583 5583 5582 5581 5579 5578 5576 5575 5573 5571 5570 5568 5567 5566 5564 5563 5561 5560 5558 5556
5578 5578 5578 5578 5578 5578 5578 5578 5578 5578 5578 5577 5576 5576 5575 5575 5575 5574 5574 5573 5573 5573 5572 5572 5571 5570 5569 5567 5566 5564 5563 5561 5559 5557 5556 5555 5553 5552 5551 5550 5549 5547 5545
5569 5569 5569 5569 5568 5568 5568 5568 5568 5568 5567 5566 5566 5565 5564 5564 5564 5563 5563 5562 5562 5561 5561 5560 5560 5558 5557 5556 5554 5553 5551 5550 5547 5546 5544 5543 5542 5541 5540 5539 5538 5536 5534
5560 5559 5559 5559 5558 5558 5558 5558 5558 5557 5556 5556 5555 5554 5554 5553 5553 5552 5552 5551 5551 5550 5549 5549 5548 5547 5546 5544 5543 5541 5540 5538 5537 5535 5533 5532 5530 5529 5528 5528 5527 5526 5524
5550 5549 5549 5549 5549 5548 5548 5548 5547 5547 5546 5545 5545 5544 5543 5543 5542 5542 5541 5540 5540 5539 5538 5538 5537 5536 5535 5533 5532 5530 5528 5527 5525 5524 5522 5521 5519 5518 5517 5516 5516 5515 5514
5540 5539 5539 5539 5538 5538 5538 5538 5537 5536 5535 5535 5534 5533 5533 5532 5532 5531 5530 5530 5529 5529 5528 5527 5526 5525 5524 5522 5521 5519 5517 5516 5515 5513 5511 5510 5509 5508 5507 5506 5505 5504 5503
5530 5529 5529 5529 5528 5528 5528 5528 5527 5526 5525 5524 5523 5523 5522 5522 5521 5521 5520 5519 5519 5518 5517 5517 5516 5515 5513 5512 5510 5509 5507 5506 5504 5503 5501 5499 5498 5497 5496 5495 5494 5494 5493
5520 5519 5519 5519 5518 5518 5518 5517 5516 5516 5515 5514 5513 5512 5512 5511 5510 5510 5510 5509 5508 5508 5507 5507 5506 5504 5503 5502 5501 5499 5498 5496 5495 5493 5491 5490 5488 5487 5486 5485 5484 5483 5482
5510 5509 5509 5509 5508 5508 5508 5507 5506 5506 5505 5504 5503 5503 5502 5501 5500 5500 5499 5499 5498 5497 5497 5496 5495 5494 5493 5491 5490 5489 5488 5487 5485 5484 5482 5480 5479 5477 5476 5475 5474 5473 5471
5500 5499 5499 5499 5498 5498 5498 5497 5496 5496 5495 5494 5494 5493 5492 5491 5491 5490 5490 5488 5488 5487 5487 5486 5485 5484 5483 5482 5481 5479 5478 5477 5475 5474 5473 5471 5470 5468 5466 5465 5464 5463 5462